Theta_e
349 349 341 329 328 329 324 321 315 316 321 331 338 340 340 340 340 340 339 337 336 334 336 338 339 340 340 341 341 342 342 343 343 343 344 344 344 345 345 345 345 344 344 344 343 343 343 342 342 342 342 341 340 340 339 339 338 337 337 338 338 338 339 339 339 338 336 334 333 334 336 336 336 336 336 337 336 337 337 337 337 338 339 339 339
349 348 342 332 329 330 327 323 316 315 319 327 336 339 339 340 339 338 337 335 335 335 338 339 339 340 340 341 342 343 343 343 343 343 343 344 345 345 345 344 344 344 344 344 343 343 343 342 341 342 341 339 338 338 337 336 334 333 332 332 332 333 334 336 338 337 334 330 328 329 333 334 335 335 335 335 334 336 337 336 337 338 339 338 337
349 347 344 335 329 330 328 326 319 314 317 324 333 338 338 339 339 338 338 337 338 337 339 339 339 341 342 343 343 343 343 343 343 344 344 344 344 344 345 344 344 344 344 343 343 343 343 342 341 341 340 338 336 334 332 332 332 331 329 329 328 327 326 328 333 335 333 329 329 330 331 332 333 334 334 334 331 331 334 335 337 337 337 337 337
348 346 344 338 331 330 329 327 322 314 316 324 333 337 337 338 338 338 338 338 339 338 339 340 341 343 343 343 343 343 343 343 344 344 344 344 344 344 344 344 344 343 342 342 342 342 342 342 341 340 338 336 334 332 332 333 333 333 332 331 330 327 325 324 328 332 331 329 332 333 333 332 332 333 334 334 330 327 329 332 334 334 334 335 336
348 345 344 342 336 330 328 329 324 316 317 326 335 337 336 337 336 337 337 339 339 339 340 341 342 343 343 343 343 343 343 343 343 343 343 343 344 343 344 343 343 342 340 340 341 341 342 341 340 338 336 334 333 333 334 334 334 333 333 332 331 329 326 325 326 326 326 328 331 332 332 331 330 331 331 332 332 330 329 330 332 333 331 330 332
347 345 344 344 340 331 327 330 324 318 321 330 336 338 337 336 335 336 337 339 339 340 341 342 343 343 343 343 343 343 343 343 342 343 343 343 343 343 343 342 341 340 339 340 341 341 341 341 340 338 335 335 335 335 335 334 333 333 333 332 332 331 327 324 324 325 327 330 332 332 332 331 330 331 331 331 330 330 330 331 331 333 331 330 331
346 346 344 344 343 333 327 330 325 319 326 334 337 340 338 337 336 337 339 340 341 342 342 342 343 343 343 343 343 343 343 343 342 342 342 343 342 342 342 342 341 340 340 339 340 341 340 340 340 338 337 337 338 337 335 333 332 333 333 332 332 331 328 323 323 328 331 331 332 332 331 331 332 331 331 331 330 329 330 330 330 330 330 330 331
345 346 344 345 342 332 328 331 325 320 330 336 337 340 339 339 340 340 342 341 342 342 343 343 343 344 343 342 342 343 343 343 342 342 341 341 341 341 342 342 342 341 340 339 340 340 340 339 339 338 338 338 337 334 331 331 331 332 333 332 332 332 329 323 323 328 329 330 332 332 331 332 332 332 331 331 331 330 330 329 327 328 330 330 331
346 346 344 346 340 330 329 331 326 321 331 337 337 340 339 340 341 342 343 342 343 342 343 343 343 344 343 342 342 342 342 342 342 341 341 341 340 340 338 338 339 340 340 339 339 338 338 339 338 338 338 336 331 329 329 330 331 331 332 331 331 332 329 326 327 330 330 331 333 332 333 333 332 332 331 331 331 330 330 330 329 330 331 330 331
345 346 344 346 339 331 330 330 327 320 330 336 336 340 340 340 341 342 343 343 343 343 343 343 343 344 343 342 342 342 341 341 340 340 340 339 337 336 334 333 334 336 338 338 338 337 336 337 338 337 335 331 327 327 330 331 331 331 331 330 331 331 329 327 329 332 333 334 334 334 334 333 332 331 331 331 331 331 330 331 331 331 332 330 329
345 345 344 345 338 331 330 329 326 321 330 337 336 339 340 340 341 341 343 343 343 343 343 343 344 343 342 342 342 341 340 339 338 337 337 336 335 335 335 334 334 333 335 335 336 336 335 336 336 332 329 327 326 329 331 331 330 329 330 330 331 330 329 331 332 333 334 334 334 334 334 334 334 333 333 332 332 333 332 331 331 332 333 333 332
345 345 344 344 338 331 330 329 326 321 329 336 337 338 340 340 340 341 342 343 343 343 343 343 343 343 342 342 342 341 340 339 337 335 334 336 335 333 333 334 335 333 333 333 333 332 332 332 330 327 326 325 327 331 332 330 329 329 329 329 330 328 328 332 332 333 335 334 335 335 335 335 335 334 334 334 334 334 335 334 334 334 334 334 334
344 344 345 344 341 334 330 329 328 324 328 335 337 337 339 340 340 341 342 344 343 343 343 343 343 343 343 342 342 341 340 338 336 333 331 331 330 329 329 329 329 332 331 329 329 326 325 326 325 326 325 325 329 332 331 329 329 330 329 329 328 326 328 331 332 334 335 334 335 335 335 335 335 334 335 335 335 335 335 334 334 334 334 334 333
343 344 345 345 342 337 333 331 329 329 330 333 336 336 337 339 339 341 343 343 343 343 343 343 342 343 343 342 342 340 339 337 335 332 328 326 328 331 331 327 323 327 328 324 325 324 324 324 323 324 324 327 331 332 331 329 330 330 329 327 324 324 329 332 332 334 334 334 334 334 334 335 335 333 334 335 335 334 333 333 333 333 333 333 332
344 345 345 344 343 341 338 334 333 334 332 332 335 336 337 339 340 341 342 343 342 342 342 343 342 342 342 342 341 340 339 337 336 334 330 326 330 333 331 329 322 322 327 327 329 330 327 324 322 324 327 330 331 332 332 330 330 330 329 326 322 325 331 333 333 334 334 334 334 334 335 335 334 334 333 333 333 332 331 331 331 331 331 331 330
345 345 345 344 343 342 341 338 337 334 330 333 336 337 337 338 340 341 342 342 342 342 342 342 342 342 342 341 340 339 338 337 337 336 333 329 330 332 331 331 325 318 324 328 330 330 326 322 324 327 329 331 332 332 332 330 330 330 329 326 322 325 331 333 334 335 335 335 335 335 335 335 334 334 334 332 332 331 330 330 330 330 330 329 329
346 346 345 344 344 343 342 341 339 335 332 335 337 337 337 337 339 340 341 342 342 342 342 342 342 342 342 341 340 339 338 337 337 335 333 331 330 332 333 332 327 319 322 328 329 328 325 325 328 329 330 331 332 332 332 331 330 330 330 328 324 325 331 334 335 335 335 335 335 335 335 335 334 334 334 333 332 330 330 330 330 330 329 327 327
346 345 344 344 344 343 343 342 340 339 337 337 337 337 336 337 337 338 340 341 341 341 341 342 341 342 341 341 340 339 338 337 337 335 333 330 328 330 333 333 330 322 320 326 328 327 326 327 329 330 331 331 332 332 332 331 330 331 330 329 327 326 332 334 335 335 335 335 335 336 335 333 332 333 333 333 332 330 329 329 329 329 329 327 326
345 346 344 343 344 343 344 343 342 342 340 339 339 337 335 335 335 336 339 340 341 341 341 341 341 341 340 340 339 338 337 336 335 334 332 330 330 330 330 331 332 325 318 322 325 326 327 329 330 330 331 331 332 332 331 331 331 331 330 330 329 329 334 335 335 335 335 335 334 336 332 328 330 332 332 332 331 330 330 329 328 328 328 327 327
345 345 344 343 344 344 344 343 343 342 342 341 340 338 335 333 334 336 338 339 341 341 341 341 340 340 340 340 339 339 338 336 335 336 335 332 331 331 329 329 331 327 320 318 321 324 326 329 330 330 331 331 333 332 332 332 331 331 331 330 331 333 336 335 335 335 335 334 334 335 328 327 331 332 331 331 331 330 330 329 328 327 327 326 326
345 345 344 344 344 344 344 343 343 342 342 341 340 340 335 332 334 336 337 339 340 340 340 340 340 339 339 339 338 339 339 337 337 338 337 335 332 330 329 328 329 329 324 319 318 321 324 327 329 330 331 331 333 333 332 331 331 332 331 330 333 336 336 335 336 334 335 334 335 334 325 326 331 331 331 331 331 329 329 328 327 327 326 327 327
345 345 344 344 344 344 343 343 342 341 341 340 339 339 336 335 335 336 337 339 339 339 339 339 339 339 338 338 338 338 337 337 339 339 338 338 334 332 331 329 329 330 328 324 319 319 322 325 328 329 330 331 333 336 335 333 332 331 331 332 335 336 335 336 336 335 335 334 335 332 325 327 331 331 331 330 330 329 328 328 327 327 326 327 328
344 344 344 344 344 343 342 342 342 341 340 340 339 338 337 336 336 336 337 338 339 338 338 339 339 338 337 337 337 337 337 337 337 336 336 337 335 334 335 332 330 329 329 328 324 320 319 322 326 328 329 330 334 337 337 337 334 333 332 334 336 336 336 337 336 335 335 333 335 332 326 328 331 331 330 330 329 328 328 327 327 326 326 327 327
344 344 344 344 343 342 342 341 341 340 339 339 339 338 337 336 336 336 337 337 337 337 338 338 338 338 337 337 337 335 335 336 333 332 334 336 335 335 336 334 332 330 329 331 330 325 320 320 322 325 330 331 334 335 335 337 337 336 336 336 336 336 336 337 336 336 335 334 335 331 327 328 330 331 330 329 329 328 327 327 327 326 326 327 328
343 343 343 343 343 342 342 341 340 339 338 338 338 337 336 336 336 336 336 337 336 336 337 336 337 337 336 336 336 335 335 336 335 334 335 336 336 335 336 336 336 334 332 335 336 332 328 328 325 326 332 333 334 335 335 336 337 337 337 337 336 336 336 336 336 336 335 335 335 331 327 326 329 330 330 329 329 328 327 328 328 326 326 326 328
343 343 343 343 342 341 341 340 339 338 336 336 337 337 336 335 336 336 336 336 336 336 336 336 336 336 335 335 336 336 337 338 338 338 337 337 337 336 336 336 337 336 335 336 338 336 335 334 331 330 332 333 334 335 336 336 336 336 337 337 336 336 336 335 336 336 336 336 336 332 328 326 327 329 330 330 329 328 327 328 327 326 326 326 327
342 342 342 342 341 340 340 339 337 337 336 335 336 336 335 336 336 336 336 336 336 336 336 335 335 335 335 336 337 338 339 339 339 339 339 339 338 338 338 337 337 337 336 336 336 336 336 334 334 333 331 331 333 334 335 336 336 335 335 336 336 336 336 336 336 336 337 336 336 334 330 327 326 327 329 330 329 328 327 327 327 326 325 325 327
342 341 341 341 340 340 339 338 336 336 336 335 335 335 335 336 337 336 335 335 335 335 336 335 335 336 336 337 338 338 338 339 339 339 339 339 340 340 340 340 340 339 337 337 336 335 335 335 335 335 332 330 331 334 335 335 335 335 334 335 335 336 335 336 336 336 337 336 336 335 332 329 327 325 327 330 329 327 328 328 328 327 325 324 326
341 341 341 340 339 339 338 337 336 335 335 335 335 334 335 336 336 336 335 335 336 336 336 336 336 336 337 338 338 338 338 339 339 340 341 342 342 342 342 341 341 341 340 339 339 337 336 335 335 335 334 332 331 333 334 334 335 334 335 335 335 335 336 336 337 337 337 337 337 336 334 331 328 326 327 330 330 328 329 329 328 328 326 324 324
341 341 340 339 339 338 337 336 336 335 335 335 335 335 335 336 336 336 336 336 336 337 337 338 337 337 338 338 338 339 339 340 340 340 340 341 342 342 342 342 340 340 340 340 340 340 338 336 335 334 334 334 333 333 334 334 334 335 335 335 335 335 336 336 336 337 337 337 337 336 335 332 330 327 326 329 330 329 329 329 329 328 328 326 325
341 340 339 339 338 337 336 336 336 336 335 335 335 335 336 336 337 337 337 338 338 338 339 339 339 339 339 339 339 339 339 339 339 339 339 339 339 340 341 341 341 341 340 341 340 340 340 339 337 335 335 335 333 334 334 333 332 333 335 335 335 335 335 335 335 336 337 338 338 337 336 334 331 329 326 327 329 329 329 329 329 329 328 328 327
340 340 339 338 337 336 336 336 336 337 336 336 336 336 337 337 337 338 339 339 339 340 340 340 340 339 339 339 339 339 339 339 338 338 338 338 338 338 339 340 340 340 340 340 340 340 340 339 339 338 337 335 334 334 334 334 333 331 332 333 334 335 335 335 335 335 336 337 337 337 337 336 333 331 327 326 327 328 329 330 330 329 329 329 329
340 339 338 337 336 337 337 337 337 337 337 336 337 337 337 338 338 339 339 339 339 340 340 340 340 339 338 338 338 338 338 338 338 338 337 337 338 338 338 339 340 340 340 339 339 340 340 339 340 340 339 337 335 334 334 334 333 332 332 333 334 335 335 333 331 333 334 336 337 337 337 337 336 333 330 328 327 327 328 330 330 330 330 330 330
340 339 338 337 337 338 338 339 339 338 338 337 338 339 339 339 339 339 339 339 339 339 339 339 339 338 338 338 338 338 338 338 338 337 337 337 337 338 338 339 339 338 339 339 340 340 340 339 339 339 339 339 337 337 336 334 333 333 333 333 334 334 334 331 328 329 329 332 336 337 336 336 336 335 334 332 329 326 326 329 330 330 331 331 330
340 338 337 338 338 339 340 340 340 339 339 340 340 341 340 340 339 340 339 340 340 339 339 338 338 338 338 338 338 338 338 337 337 337 337 337 337 337 337 337 337 337 338 338 339 339 338 339 339 339 338 338 338 338 338 336 335 334 333 332 334 335 335 333 331 328 326 329 334 336 337 336 336 336 335 334 332 329 327 327 329 330 331 331 330
339 338 338 338 339 340 340 341 341 340 341 341 341 341 340 339 339 340 340 339 339 338 338 338 338 338 338 338 338 338 338 337 337 338 338 338 338 338 338 337 337 337 337 337 337 337 337 337 338 338 337 337 338 337 337 337 337 337 335 334 335 333 332 333 333 332 330 330 333 335 336 336 336 336 335 335 334 333 330 327 327 329 331 330 330
340 338 339 339 340 341 341 341 341 341 341 341 341 340 340 340 340 339 339 339 338 338 338 338 338 338 338 338 339 339 338 338 338 339 339 338 338 338 338 337 337 337 337 336 336 336 336 336 336 336 336 336 336 337 337 337 337 337 337 336 336 333 331 332 332 332 332 332 332 334 335 335 336 336 336 335 334 335 333 330 327 327 329 330 330
341 339 339 340 341 340 340 340 340 340 340 340 340 339 340 340 340 339 339 338 338 338 338 339 338 338 338 338 339 340 340 340 340 340 339 339 338 338 338 338 337 337 337 336 336 336 335 335 335 335 335 335 335 336 336 336 336 336 336 336 337 336 335 335 334 332 332 331 332 334 335 335 335 335 336 335 334 334 334 333 329 327 328 329 329
340 340 340 340 340 340 340 340 339 339 340 340 340 339 340 340 340 339 339 338 338 339 338 339 339 338 339 339 339 340 339 339 339 340 339 339 338 338 338 339 338 338 337 336 335 335 335 334 335 335 335 335 335 336 335 335 335 336 336 336 335 336 337 336 336 335 334 332 331 333 334 335 335 336 336 335 335 334 334 334 332 330 329 328 328
338 339 339 340 340 339 340 339 339 340 339 340 340 340 340 339 339 339 339 339 339 339 339 339 339 338 338 338 339 339 338 338 339 339 339 338 338 338 338 338 338 337 336 336 335 334 334 334 334 335 334 334 335 336 336 336 336 336 336 336 335 336 336 336 336 336 336 334 333 332 333 334 335 336 336 336 335 334 334 334 333 332 331 329 328
337 338 338 339 339 339 339 338 339 340 340 340 341 341 340 339 338 339 339 339 339 339 339 338 338 338 338 338 338 339 339 339 339 339 338 338 338 338 338 338 337 336 336 336 335 334 334 334 335 335 335 335 336 336 336 335 336 336 336 336 336 336 336 336 335 335 336 335 334 333 332 334 335 336 336 336 335 334 334 334 334 333 333 332 330
336 338 337 337 339 338 338 339 339 340 341 340 340 340 339 339 338 338 338 338 338 338 338 338 337 337 337 337 337 338 338 338 338 338 338 338 338 338 337 337 336 336 336 336 335 334 335 335 335 334 335 336 336 336 335 335 335 335 336 335 335 335 336 336 335 334 335 335 335 335 334 335 335 334 334 335 335 334 334 334 334 333 333 332 332
334 336 335 336 338 338 337 339 340 339 340 339 339 339 338 338 338 338 338 338 337 337 337 337 337 337 336 336 336 336 336 336 336 336 336 337 337 336 336 336 335 335 335 334 334 334 335 335 335 334 335 334 335 335 335 335 334 334 334 334 334 334 335 337 336 334 335 335 335 336 336 335 335 334 334 334 334 334 334 334 334 334 333 332 332
333 333 335 337 338 338 339 340 339 339 339 339 339 338 338 338 338 338 337 337 337 336 336 335 335 336 335 334 334 334 334 334 334 334 334 334 335 335 334 335 335 334 334 334 334 333 333 335 334 335 334 333 333 334 334 334 334 333 334 334 334 334 335 336 335 334 335 336 335 335 335 334 334 334 334 334 334 333 333 333 333 333 333 333 332
333 333 335 336 336 337 338 339 339 338 338 338 338 338 338 338 338 337 337 337 337 336 336 335 334 334 333 333 333 332 332 332 332 332 332 332 332 332 333 333 334 333 333 333 333 333 333 334 334 334 334 333 333 334 334 334 334 334 333 333 333 333 334 334 333 333 334 336 336 335 335 334 334 334 334 334 334 333 333 333 332 332 333 333 332
335 336 336 336 337 337 338 338 339 338 338 338 338 338 338 337 337 337 337 336 336 335 334 334 333 333 333 332 332 331 331 331 330 330 330 330 331 331 331 332 332 332 332 332 332 332 333 332 332 333 333 333 333 333 334 334 334 334 333 333 333 333 333 333 333 334 334 335 335 335 335 335 334 334 335 334 334 333 332 332 332 332 333 333 332
336 337 337 338 338 338 338 338 338 337 338 337 337 337 337 337 336 336 336 336 335 334 333 333 332 332 332 331 331 330 329 329 329 328 328 329 330 330 330 330 331 331 331 331 331 332 332 332 332 332 332 332 333 333 333 333 333 333 333 333 333 333 333 333 333 333 333 334 334 335 335 335 336 335 334 334 334 334 332 331 331 332 332 333 332
336 336 337 338 338 337 336 336 336 336 337 337 336 336 336 335 335 335 335 334 333 333 332 332 331 331 331 330 330 328 327 327 327 327 327 327 328 328 329 329 329 330 330 330 330 331 331 331 331 331 331 332 332 333 332 332 333 332 332 333 333 333 333 333 333 333 333 333 332 334 334 334 335 336 335 334 334 334 332 331 331 331 332 332 332
335 335 335 336 335 335 335 335 335 335 335 335 335 335 335 334 334 333 333 332 332 331 331 331 331 331 330 329 328 327 326 325 325 325 325 325 326 326 327 327 326 327 327 328 328 329 329 330 330 330 330 331 332 332 332 332 332 332 331 332 333 333 332 333 333 333 333 332 331 332 333 333 334 336 335 333 332 332 331 331 331 331 331 331 332
332 333 334 334 334 334 333 333 333 333 333 333 332 332 332 332 332 332 332 331 331 330 330 331 330 330 329 327 326 325 324 324 323 323 324 324 324 324 324 324 324 324 324 325 325 326 326 327 328 328 329 330 330 331 332 332 332 332 333 332 332 332 332 332 333 333 333 333 332 333 333 333 333 335 335 333 330 331 331 331 331 331 330 331 331
330 331 332 332 332 332 331 331 331 331 331 330 329 330 330 330 330 330 330 330 330 330 329 329 328 328 326 325 324 323 323 323 322 321 321 322 322 322 321 321 322 322 322 322 323 323 323 324 325 326 327 328 329 329 330 331 331 332 332 332 331 332 332 333 333 332 332 332 332 332 333 333 332 332 335 334 332 331 331 331 330 331 331 331 331
Wind_Speed
21 20 23 23 20 19 16 15 14 15 16 15 15 14 15 16 18 18 19 19 18 18 17 17 18 18 18 17 17 16 15 15 15 14 14 15 14 14 14 14 15 15 15 16 16 16 16 16 16 16 16 16 16 16 16 16 16 16 16 15 14 14 13 12 12 11 11 11 11 12 12 12 12 11 11 10 11 15 13 11 10 13 15 15 15
22 21 23 23 21 18 16 15 13 16 17 17 15 14 14 14 16 17 18 18 17 17 16 17 18 19 18 18 16 15 16 15 15 15 15 14 13 14 14 14 15 15 15 15 15 15 15 15 16 16 16 16 16 15 16 16 15 15 15 14 13 12 11 11 11 11 11 11 11 11 11 11 11 10 10 10 11 13 12 12 11 12 14 13 13
23 22 22 22 21 18 16 14 13 15 17 18 15 14 14 14 15 15 16 15 16 17 17 18 18 18 17 16 16 15 16 16 16 15 15 14 13 14 14 14 15 15 15 15 15 15 15 15 15 16 15 15 15 16 16 15 14 14 13 13 12 11 9 8 9 11 11 12 12 12 12 11 11 11 10 10 10 10 10 11 11 11 12 11 12
23 22 22 21 20 18 16 14 13 15 18 18 15 14 14 15 15 16 16 16 17 17 18 18 18 17 17 16 16 16 16 16 15 15 15 15 14 14 13 14 14 14 15 14 14 14 14 14 15 15 15 15 15 16 15 13 12 12 11 11 11 11 10 8 8 9 9 11 11 10 10 10 11 10 10 10 10 8 8 9 9 10 10 10 10
23 23 23 20 19 19 16 14 12 14 19 19 16 14 14 15 15 16 17 17 17 17 18 18 18 17 17 17 16 16 16 16 15 15 15 15 15 14 13 14 14 14 14 13 13 13 13 13 13 14 14 14 14 14 12 11 10 10 10 10 10 11 11 9 9 9 10 12 11 7 8 9 10 10 10 10 10 10 10 9 9 10 10 8 8
24 23 23 20 19 19 17 14 12 14 19 20 18 15 14 14 15 16 17 17 17 17 18 18 18 17 17 17 16 16 16 15 15 15 14 14 14 14 13 13 14 14 13 13 12 12 12 12 12 12 13 13 12 11 10 9 8 8 8 9 9 11 10 9 9 11 12 12 10 7 8 9 10 11 10 10 10 10 10 10 10 10 9 8 7
24 22 22 20 19 19 17 14 12 14 18 20 18 16 15 15 16 17 17 17 17 18 18 18 18 17 17 16 17 16 16 15 14 14 14 14 14 13 13 13 13 13 12 12 11 11 11 11 11 11 11 10 9 9 8 7 7 6 7 8 8 9 9 10 11 13 11 8 7 8 9 9 10 10 10 9 10 11 11 10 9 9 8 9 8
22 22 21 19 19 20 18 14 13 15 18 20 18 16 16 15 16 17 17 17 18 18 18 18 18 17 16 16 16 16 16 15 14 14 14 14 13 13 12 12 11 11 11 11 11 10 10 10 10 10 9 8 8 7 7 7 6 5 6 7 7 8 8 11 12 13 12 7 7 8 9 10 10 10 9 9 10 11 10 10 9 10 10 10 9
21 21 21 19 19 21 18 15 14 15 18 20 18 16 16 16 16 17 17 17 18 18 18 18 17 16 16 16 16 16 15 14 14 13 13 12 11 11 10 9 9 10 11 10 10 9 9 10 9 9 8 8 8 8 7 7 5 4 4 5 6 7 8 10 12 12 10 8 8 8 9 10 10 11 10 10 10 9 8 8 9 10 10 10 10
21 20 20 18 20 21 18 16 14 16 19 19 19 17 16 16 16 17 17 18 18 18 18 17 17 16 16 16 16 15 15 14 13 12 11 10 8 8 7 7 7 9 10 9 8 8 9 9 8 7 7 7 8 8 7 7 6 5 4 5 5 7 8 11 13 10 9 9 10 10 11 11 11 11 10 11 11 9 8 8 9 9 10 10 10
21 19 19 18 21 22 19 17 15 16 19 19 19 17 16 17 16 16 17 17 17 17 17 17 16 16 16 15 15 15 14 13 11 10 9 8 7 7 7 7 7 7 8 8 7 7 8 8 7 7 7 7 7 7 8 8 8 7 6 5 5 7 9 11 11 8 9 11 11 11 11 11 11 10 9 11 12 11 9 8 9 10 10 10 10
20 19 19 19 21 21 20 18 16 17 18 19 19 17 16 17 16 16 17 17 17 17 16 16 16 15 15 15 14 14 13 11 9 8 8 8 7 7 7 7 6 6 7 7 7 7 7 7 7 7 7 7 7 8 8 8 8 7 7 6 6 7 10 11 8 7 10 11 11 10 10 10 10 9 9 9 10 10 9 9 9 9 10 9 9
20 19 19 19 19 20 20 18 17 17 18 19 19 17 16 16 16 16 17 17 16 16 16 16 16 15 15 14 13 13 12 11 9 8 8 8 7 7 6 5 5 6 5 5 5 6 6 8 7 6 7 6 7 8 8 8 7 7 7 7 6 7 11 12 8 7 9 10 10 10 10 10 9 9 9 9 9 8 7 8 8 8 8 8 7
21 20 19 19 18 19 19 18 18 17 18 18 19 18 17 17 17 17 17 17 16 16 16 15 15 14 14 14 13 12 12 11 10 9 8 8 8 8 6 5 5 5 5 5 6 6 8 9 7 7 7 6 7 7 7 7 7 7 8 8 7 9 12 10 7 8 8 9 9 9 10 9 8 8 8 8 8 7 6 6 6 6 6 5 5
21 20 20 19 18 18 17 17 17 17 18 18 19 18 18 17 17 18 17 16 16 16 15 15 15 14 14 13 12 11 11 10 9 9 8 8 8 8 7 6 6 6 7 7 8 8 9 9 8 7 6 6 6 7 6 6 7 7 9 10 8 9 10 7 5 7 7 7 8 8 9 8 8 8 7 6 6 4 3 4 3 3 4 4 4
20 20 20 19 19 18 17 16 16 17 18 19 19 18 18 18 17 18 17 16 16 16 15 14 14 13 13 12 11 11 10 10 9 9 9 9 8 8 7 7 6 6 7 8 9 8 10 11 9 8 6 6 6 6 5 6 6 7 9 10 10 9 10 7 4 5 5 6 6 7 8 6 7 7 5 4 4 2 2 2 1 2 2 2 3
20 20 19 20 19 18 17 15 15 16 17 19 19 18 17 17 18 17 16 16 16 15 14 14 13 13 13 12 11 11 10 10 9 9 9 9 8 8 8 7 6 6 7 9 9 9 11 11 9 8 6 6 6 5 4 5 5 6 8 9 10 10 11 9 4 4 4 4 5 5 6 5 6 5 4 4 3 2 2 2 2 1 0 0 1
20 19 19 20 19 18 17 16 15 15 16 16 16 16 16 16 17 16 15 15 15 14 14 13 13 12 11 11 10 10 9 8 8 8 9 9 9 9 8 7 7 6 7 9 9 10 11 11 9 7 6 6 6 5 5 5 5 5 6 8 9 9 11 9 4 4 4 3 3 4 4 5 5 4 4 3 2 2 2 2 2 1 1 1 1
19 18 18 19 18 18 17 16 15 15 15 13 12 12 15 16 15 15 15 15 14 13 13 13 12 11 10 10 9 7 6 6 6 6 8 9 9 9 9 8 7 7 7 8 9 9 11 10 8 7 6 6 6 6 5 5 5 4 5 6 7 9 10 7 4 3 4 2 2 3 1 5 5 4 2 2 2 2 2 2 2 2 2 0 1
18 18 17 17 17 18 17 17 16 15 14 13 12 11 13 14 14 13 14 14 14 13 13 12 11 10 9 9 7 5 6 6 5 6 7 8 8 7 8 9 8 8 7 6 7 7 9 9 8 6 5 5 5 6 6 6 5 3 3 4 6 8 7 4 3 3 3 3 2 2 2 4 5 3 2 1 1 2 2 2 1 3 3 2 3
18 18 17 16 17 17 16 16 16 14 13 13 13 12 11 12 12 12 13 14 13 13 12 11 10 9 8 8 6 5 6 5 5 6 6 5 6 7 7 8 8 8 7 6 5 6 6 7 7 6 5 4 4 5 6 6 5 4 2 2 5 5 2 1 2 2 2 2 2 1 3 3 4 3 3 2 2 2 2 2 1 3 4 3 2
18 18 16 16 16 16 15 15 15 14 13 13 13 12 11 11 11 12 12 12 12 11 10 9 9 8 7 7 6 5 4 4 4 4 4 3 4 5 6 5 6 7 6 6 5 5 5 5 5 6 5 4 3 4 5 5 5 4 3 2 3 0 1 1 0 1 1 1 2 3 4 3 4 2 2 2 3 3 3 2 2 3 3 4 3
18 17 16 16 14 15 15 15 15 14 12 12 13 13 12 11 11 12 12 11 11 9 9 9 8 8 7 6 5 4 5 4 4 4 4 4 2 3 4 3 4 5 5 5 4 4 5 6 5 5 5 3 3 4 5 5 4 4 4 2 2 3 1 1 1 0 0 1 1 5 4 4 4 3 3 3 4 4 4 3 2 3 4 4 4
17 17 16 15 14 14 14 14 14 13 12 12 12 12 12 11 11 11 11 11 11 10 9 8 7 7 7 6 5 5 5 4 3 4 4 3 2 2 2 2 3 3 4 4 3 2 3 5 6 6 5 4 4 5 5 5 5 5 5 5 4 4 3 3 2 1 1 1 2 6 4 3 5 5 5 4 5 4 4 4 3 3 4 5 5
17 16 16 15 14 14 14 13 13 12 12 12 11 11 11 11 10 11 11 10 10 9 8 8 7 6 6 6 5 5 5 4 4 4 4 3 3 2 2 3 3 3 2 3 3 2 3 4 6 7 7 7 7 6 5 5 6 6 6 6 5 4 4 4 3 3 2 1 5 7 5 3 5 7 6 5 5 5 5 4 4 4 4 6 6
16 15 15 15 14 13 13 13 12 12 11 11 11 11 11 10 10 10 11 10 10 9 9 8 7 7 7 6 6 6 5 5 5 4 4 4 4 4 3 4 4 3 3 3 4 3 4 5 5 7 8 8 8 7 7 6 6 6 6 6 5 5 5 5 4 4 3 3 6 8 6 5 5 7 7 6 6 6 6 5 5 5 5 6 5
15 15 15 15 14 13 13 13 12 12 10 10 10 10 10 10 10 10 10 10 10 9 8 8 7 7 7 7 7 6 5 4 4 4 3 3 3 3 3 3 3 3 3 3 4 4 4 4 5 6 7 8 9 8 8 7 7 7 7 7 6 6 6 6 6 5 5 4 7 10 8 6 6 6 7 7 7 8 7 7 7 6 8 8 6
15 15 15 14 14 14 13 12 12 11 10 10 10 10 10 10 11 10 10 10 10 9 8 8 8 8 7 6 5 5 4 3 3 2 2 2 1 1 1 1 2 2 2 2 3 4 4 5 5 5 6 7 9 9 9 8 8 8 7 7 7 7 7 7 7 6 7 6 7 10 10 8 7 7 8 8 8 8 7 7 8 7 8 8 8
16 16 15 14 14 14 13 12 12 11 10 10 10 10 10 10 10 10 10 9 9 8 8 8 7 7 7 5 4 4 3 2 1 1 1 1 1 0 1 1 1 2 2 2 2 3 4 5 6 6 6 6 8 9 9 9 9 9 9 9 8 8 8 8 8 7 8 8 7 9 12 10 8 9 8 8 9 9 8 9 8 8 8 6 9
16 16 15 15 14 14 13 12 11 11 11 11 10 10 11 11 10 11 11 10 9 8 8 8 7 7 6 5 4 3 3 1 1 0 0 0 1 1 1 1 2 2 3 3 3 3 4 4 5 6 7 6 7 8 9 10 10 11 10 10 10 9 9 9 9 8 9 9 8 9 13 13 10 10 9 9 10 10 10 10 10 10 9 8 9
16 15 14 15 14 14 13 12 11 11 11 11 11 11 11 11 11 11 11 10 9 8 8 6 6 6 5 4 4 3 3 2 1 0 0 0 1 1 1 2 2 2 3 3 3 4 4 5 5 6 7 7 8 7 8 10 11 12 12 11 11 10 9 9 9 10 10 10 10 10 13 15 13 12 11 11 11 11 11 11 11 10 10 10 10
15 15 14 14 14 14 13 12 12 11 12 12 12 12 12 11 11 11 10 9 8 7 6 5 4 4 4 3 3 3 2 2 2 1 1 0 0 0 1 1 1 1 2 3 3 4 4 5 5 6 7 8 9 9 9 10 11 12 13 12 11 10 9 9 8 10 11 12 12 11 12 14 15 14 13 13 13 12 12 12 12 11 12 11 10
15 15 14 15 15 14 14 13 13 13 13 13 13 13 13 12 11 10 9 8 7 6 5 4 4 4 3 3 3 3 3 3 3 2 2 2 1 1 0 0 1 1 2 3 3 4 4 5 5 6 7 8 9 10 10 11 11 12 12 12 11 10 10 11 11 11 12 13 13 12 12 13 14 14 13 13 14 14 13 13 13 13 13 12 10
14 15 15 16 15 15 15 15 15 14 14 14 13 12 11 11 9 9 8 7 6 5 5 4 4 4 4 4 4 4 4 3 3 2 2 2 1 1 0 1 1 1 2 2 3 3 4 5 5 6 7 8 10 11 11 12 13 12 12 13 13 12 11 14 16 16 17 16 14 13 13 13 13 13 13 13 14 14 15 15 15 14 13 13 11
14 15 16 16 16 16 15 15 15 15 14 13 12 11 10 10 9 7 7 6 6 5 5 4 4 4 4 4 4 4 4 3 3 2 2 1 1 0 0 1 2 2 3 2 3 4 5 5 4 6 7 8 9 10 11 12 13 13 13 14 14 13 12 13 15 18 20 19 17 15 14 14 14 14 13 13 13 14 15 16 17 16 15 14 13
13 15 16 16 15 15 14 14 14 14 13 12 11 11 10 10 8 7 6 6 6 6 5 5 5 4 5 5 4 4 3 3 2 2 1 1 0 0 0 1 2 2 3 4 4 5 6 6 6 7 8 8 9 10 10 11 13 13 14 14 13 14 16 15 14 15 17 18 18 16 15 15 15 14 14 13 13 14 14 15 18 19 17 16 14
13 15 16 16 15 14 14 15 14 13 12 12 12 11 10 9 8 7 6 6 7 7 6 5 5 5 5 5 4 3 3 3 2 1 1 1 0 1 1 2 2 3 4 5 5 6 7 8 8 8 9 10 10 10 11 11 12 13 13 14 14 16 19 18 16 16 16 17 17 16 15 16 16 16 15 14 13 13 14 15 17 19 20 18 17
15 15 15 16 17 16 16 16 15 14 13 12 12 11 10 8 8 8 7 7 7 7 6 5 5 5 5 5 4 3 3 2 2 1 0 0 1 1 2 2 3 3 4 5 6 7 7 8 9 9 9 11 12 12 12 12 12 13 13 13 14 15 17 17 17 17 17 17 17 16 16 16 16 17 17 16 15 14 13 14 16 19 22 21 20
18 17 15 15 17 18 17 16 16 15 13 13 12 10 9 8 8 8 7 7 7 7 6 5 5 4 4 4 3 3 2 1 1 0 1 1 2 2 2 3 3 4 5 6 6 7 7 8 9 10 10 11 11 12 12 13 13 13 12 13 14 15 16 16 16 17 18 18 18 18 17 16 16 17 17 17 16 15 14 15 15 17 21 22 22
19 19 16 15 16 17 16 16 16 15 14 13 11 9 9 9 9 9 8 7 7 7 6 5 5 5 5 4 3 3 2 1 1 1 1 2 2 3 3 4 4 5 6 7 7 8 8 9 9 10 11 11 10 10 10 11 12 13 13 14 15 16 17 17 16 17 17 17 18 19 18 17 17 17 17 17 17 17 16 15 15 15 18 21 22
15 16 17 16 15 15 16 16 15 14 13 12 10 9 9 9 9 9 8 7 7 7 7 6 6 6 6 5 4 4 3 2 2 2 2 3 3 4 4 5 5 6 7 7 8 9 9 9 9 9 10 10 9 8 8 10 12 12 12 13 14 15 16 17 17 17 17 16 17 18 18 17 17 17 17 17 18 18 17 16 16 15 16 17 20
15 15 18 18 16 15 15 15 15 13 12 11 10 10 9 8 8 8 7 7 6 7 8 8 8 7 7 6 6 5 5 4 4 3 3 4 4 5 6 6 7 7 8 8 9 9 9 9 9 9 9 9 9 8 8 9 10 11 11 11 12 13 14 16 16 16 16 16 16 17 17 17 19 19 17 17 19 19 19 18 17 17 16 15 16
15 14 16 17 16 16 15 15 14 13 12 11 11 11 10 8 8 8 8 7 7 8 9 9 8 7 7 6 6 6 6 6 6 5 4 5 5 6 7 7 7 7 8 9 9 9 9 9 9 10 10 9 8 8 7 7 9 10 10 9 8 8 9 10 13 16 15 15 15 15 16 17 19 19 17 17 19 20 19 19 18 17 18 17 16
13 14 14 15 15 16 15 14 13 12 12 12 11 11 11 10 9 9 9 9 8 8 9 8 7 7 6 6 6 7 6 6 6 6 6 6 6 6 7 8 8 8 9 9 10 10 9 9 9 9 11 11 9 8 7 7 8 9 8 7 7 8 7 3 6 11 12 12 14 15 16 17 18 17 17 18 19 20 19 19 19 18 18 19 19
13 14 16 16 16 16 14 14 13 12 12 13 12 11 11 11 11 10 10 10 9 7 7 6 5 5 5 5 5 6 6 6 6 6 6 6 6 6 7 7 8 8 9 10 10 11 10 9 8 8 9 10 10 10 9 8 8 8 8 8 6 6 6 7 9 7 6 8 11 13 15 17 18 16 17 18 19 18 19 20 20 20 20 20 21
13 14 16 16 15 14 14 14 13 12 12 12 11 10 10 11 11 9 7 7 7 5 4 4 4 4 4 4 5 6 6 6 6 6 6 5 6 6 6 7 7 8 8 9 10 11 11 10 9 8 9 9 10 11 10 8 8 9 10 10 9 8 9 9 8 6 5 7 10 10 12 15 16 15 16 17 18 19 21 22 21 21 21 21 23
12 13 15 14 13 13 13 13 12 11 11 11 10 10 10 9 8 6 6 6 5 4 4 4 4 3 3 3 5 5 6 7 6 6 6 6 6 6 6 7 7 8 8 8 9 11 12 12 10 9 9 9 9 11 11 9 9 9 9 10 12 12 12 10 7 6 7 7 9 10 11 12 14 15 16 17 18 19 23 25 23 22 21 21 24
12 14 14 14 14 13 14 14 13 13 11 10 10 9 9 9 8 7 7 7 6 6 5 3 2 2 3 4 5 5 5 7 7 6 7 7 7 6 6 7 7 7 7 8 9 10 11 12 12 11 11 11 10 11 12 11 10 10 9 10 11 12 13 13 11 10 8 6 8 9 10 12 14 15 16 17 18 20 23 27 26 25 23 23 23
11 15 16 16 16 16 16 16 15 14 12 12 11 11 10 9 9 8 8 6 5 4 2 1 1 2 3 4 4 5 5 6 7 7 7 8 8 8 7 7 8 8 8 9 9 10 11 11 12 12 12 12 11 11 13 13 12 12 11 11 11 12 12 13 13 12 9 8 8 7 8 10 12 14 15 18 19 21 24 25 27 27 27 26 25
12 17 19 18 17 17 17 16 15 14 13 13 14 13 11 9 7 7 5 4 2 1 1 2 2 2 4 5 4 5 5 5 6 7 7 8 8 8 8 8 8 8 9 9 9 10 11 11 11 11 12 12 13 12 12 13 13 13 13 12 13 12 11 10 11 11 9 8 9 9 10 10 10 12 14 17 19 21 22 24 26 27 28 28 25
13 16 18 18 17 16 17 17 14 13 12 14 14 12 10 7 6 5 3 2 2 1 2 2 3 3 4 5 4 5 5 6 6 6 7 8 8 8 9 8 8 9 10 10 10 11 12 11 12 11 11 12 13 14 13 13 14 14 14 14 14 14 13 11 11 11 10 9 9 9 11 13 14 15 14 14 17 18 20 23 26 27 29 29 26
Wind_Direction
152 149 147 155 150 149 146 144 146 149 154 141 136 137 140 145 146 143 142 140 138 136 132 128 123 124 123 125 124 123 123 121 118 114 111 108 106 106 106 106 107 107 108 109 108 107 106 105 104 104 103 101 100 98 96 96 94 93 92 90 90 92 93 94 94 94 94 92 88 86 85 87 86 85 86 84 96 98 90 85 83 83 82 78 77
150 146 146 153 150 150 144 143 143 149 157 146 139 139 139 139 142 143 142 142 139 135 128 124 122 123 123 124 124 125 124 119 115 112 109 106 106 106 107 108 109 109 109 108 107 107 106 107 106 105 104 103 102 100 98 96 94 91 90 89 87 87 89 95 98 96 94 86 77 80 85 89 89 87 88 84 97 106 100 93 83 77 80 81 82
146 142 143 149 150 149 144 141 140 150 157 150 141 138 140 137 137 136 136 134 131 128 123 122 122 122 123 123 123 124 121 117 114 111 109 106 105 104 106 107 107 108 108 105 104 104 105 107 107 106 106 106 105 103 102 98 93 89 87 84 79 77 82 92 98 100 94 80 69 70 76 82 85 86 86 80 90 107 106 98 88 80 83 86 81
144 139 140 146 148 146 143 140 138 149 155 150 140 137 139 136 136 133 133 131 128 126 125 126 125 124 124 122 120 120 119 117 114 111 110 106 105 104 106 106 105 104 103 101 102 104 105 106 105 106 107 108 107 105 103 98 92 84 80 75 71 69 73 87 99 105 99 87 82 79 78 81 84 86 88 80 77 86 93 97 93 82 83 86 83
143 139 138 140 143 145 142 139 138 144 151 148 139 137 137 136 136 134 134 130 130 129 129 128 127 126 124 123 121 120 118 116 114 112 110 108 108 107 107 107 105 103 102 103 103 104 104 105 105 106 109 109 106 105 101 95 89 79 72 67 68 67 68 81 96 104 103 95 91 92 89 88 86 85 87 82 77 78 80 84 82 73 72 73 81
142 139 137 138 141 145 143 139 138 142 146 144 139 139 139 138 137 135 134 130 130 129 128 128 126 126 125 125 123 120 117 114 113 111 109 108 108 108 108 107 108 107 107 106 102 102 101 101 103 106 109 107 104 102 98 90 80 74 69 64 66 67 68 76 90 98 95 85 82 90 89 90 89 86 84 82 82 83 80 79 78 72 71 71 68
141 138 137 139 142 146 145 138 137 142 143 142 140 141 143 140 138 135 132 131 130 128 126 128 128 127 127 127 124 120 116 113 112 110 109 107 105 104 104 104 106 106 105 103 97 96 96 96 98 101 102 102 102 97 93 86 70 62 62 64 66 67 72 77 88 93 85 73 77 88 87 89 90 87 85 82 82 84 83 80 78 75 79 85 74
139 138 138 139 145 149 145 140 137 142 143 142 141 142 143 137 135 133 131 131 130 129 129 129 129 128 127 126 123 120 117 113 111 110 110 109 106 105 104 106 109 109 107 104 99 97 97 99 100 99 100 103 99 89 80 69 55 48 52 60 65 71 79 82 85 81 76 80 84 85 85 88 91 88 85 86 87 86 80 70 71 74 77 83 80
139 138 139 139 148 151 145 143 137 142 144 142 142 141 142 138 135 134 134 133 132 133 131 131 130 128 127 125 123 121 118 115 112 110 109 108 108 108 107 111 118 121 119 113 110 110 107 104 103 100 103 101 90 75 60 49 45 46 48 52 63 77 84 86 82 72 74 85 83 82 84 87 92 88 83 93 98 89 80 72 71 75 80 85 85
140 139 139 140 150 152 146 143 137 143 144 142 142 141 142 140 138 139 138 137 136 135 133 132 131 130 127 126 124 121 119 115 112 109 107 104 102 100 97 103 117 131 129 117 114 120 117 112 109 106 100 90 76 59 48 48 56 60 59 59 70 83 92 90 80 75 83 84 81 82 84 87 90 88 83 90 96 92 101 107 94 85 85 86 85
140 140 139 143 152 151 147 143 140 143 144 142 141 141 142 141 142 142 140 138 138 136 134 133 131 131 128 127 126 122 119 115 111 108 105 98 94 91 90 95 104 128 134 124 125 130 126 120 117 109 97 83 67 51 47 53 58 57 54 69 83 87 96 89 78 84 89 86 88 86 85 86 85 89 89 89 90 90 96 106 101 92 88 88 87
142 140 140 146 152 150 147 144 142 142 141 141 141 142 142 143 144 142 141 139 139 138 135 135 134 132 130 127 123 120 118 113 106 105 105 102 103 104 107 112 118 131 141 141 146 148 136 122 119 107 94 82 64 49 50 55 54 49 47 70 85 90 97 87 85 102 93 90 93 90 90 88 87 91 93 92 93 91 92 95 97 94 93 94 94
144 142 142 145 149 149 148 146 143 141 139 140 141 142 143 144 143 144 144 140 141 140 137 138 136 134 132 126 120 116 112 104 96 94 101 107 105 102 102 111 132 142 152 160 164 163 140 125 125 112 98 80 59 49 55 63 61 52 50 65 73 92 98 88 97 109 97 96 93 93 94 93 98 95 93 98 98 96 98 100 98 97 100 100 103
147 144 144 143 146 148 148 146 143 140 138 139 141 142 144 145 146 148 145 142 143 141 141 139 137 136 132 125 120 114 107 100 93 89 94 102 97 89 79 75 103 122 135 143 143 145 135 133 133 115 99 76 56 51 65 76 70 59 55 58 69 96 95 82 97 105 99 101 95 98 97 101 111 106 105 106 102 100 100 103 104 104 100 93 102
148 147 146 144 145 146 146 145 142 140 139 139 140 143 147 149 150 150 146 145 144 143 143 139 139 137 131 126 121 115 107 102 97 89 85 91 95 90 75 64 72 100 119 124 127 131 135 141 135 118 100 76 55 53 74 87 77 65 60 59 70 99 103 85 90 98 102 104 98 100 98 110 125 120 122 120 114 114 100 96 102 105 99 89 84
149 149 147 145 145 145 145 145 144 142 140 139 141 147 150 153 153 151 149 148 146 145 144 141 141 138 133 128 123 117 109 103 94 85 81 85 95 90 79 68 58 86 116 123 129 135 138 141 135 122 105 79 59 58 81 93 83 70 63 64 72 96 110 99 86 93 99 102 98 101 101 119 136 128 130 132 132 142 121 97 99 106 103 94 79
149 150 149 148 146 145 145 147 147 142 141 142 146 150 151 154 154 152 151 150 149 147 145 144 143 139 134 128 123 118 109 100 89 77 75 80 91 92 85 73 59 78 110 122 128 135 138 140 136 126 110 88 70 68 89 102 94 77 68 69 75 92 106 97 79 79 85 95 97 98 106 137 148 131 136 139 139 147 138 128 134 144 126 318 32
152 153 153 152 150 148 147 149 149 141 140 141 146 152 153 156 156 155 153 151 150 149 149 147 143 140 134 130 123 113 105 96 84 72 71 79 86 88 90 81 67 77 108 123 130 136 141 143 137 127 112 93 80 79 99 115 108 87 74 71 77 90 96 90 79 79 86 93 93 93 115 177 168 132 141 140 132 139 151 158 152 173 249 298 305
154 155 155 155 155 152 148 150 149 143 142 141 142 149 154 156 157 157 156 152 151 151 150 147 144 140 136 133 123 111 104 87 76 74 73 82 87 82 83 84 80 82 102 129 138 141 145 146 140 130 114 96 85 86 106 122 122 104 81 72 78 80 72 71 81 85 89 77 81 94 146 204 170 133 146 144 134 121 130 152 156 163 167 182 126
155 156 157 158 157 155 151 150 149 148 143 142 143 144 152 153 150 152 153 152 149 150 148 146 143 138 139 134 122 113 102 82 84 90 73 78 94 94 84 81 83 84 97 129 147 151 150 150 146 136 116 98 90 92 108 123 134 123 93 79 72 67 50 52 85 77 80 67 86 89 282 203 162 153 172 193 180 143 149 153 138 151 145 124 122
158 158 159 158 156 155 151 147 146 146 140 141 143 143 148 145 141 143 149 154 149 147 147 145 142 140 141 132 123 115 100 90 103 100 78 76 94 101 94 89 89 87 97 122 155 170 164 160 156 146 131 109 93 100 113 121 139 142 136 97 69 66 45 60 78 67 80 69 102 313 294 184 164 183 193 218 221 208 198 176 132 139 135 132 146
158 158 159 156 154 153 147 144 144 142 139 141 142 143 145 141 141 142 148 157 153 147 145 148 148 146 144 134 131 127 116 111 111 107 106 116 106 102 102 101 104 97 99 114 149 179 185 182 173 161 148 125 100 123 136 131 147 154 164 126 82 132 207 111 10 73 91 62 129 285 297 163 162 189 208 233 235 238 227 202 173 156 145 150 176
159 157 154 152 152 152 147 146 144 140 141 142 139 141 144 143 144 146 149 155 156 155 152 154 150 144 147 143 137 135 132 129 139 149 141 142 141 121 114 115 123 116 111 111 128 166 189 197 198 191 170 148 137 173 174 163 172 166 169 180 203 227 218 209 246 184 277 53 191 281 297 155 165 201 226 240 240 241 226 213 197 177 168 164 180
160 155 149 148 150 153 149 145 142 139 143 142 139 141 145 146 145 150 154 153 155 159 157 155 148 140 144 142 137 135 131 132 145 140 128 140 155 132 126 137 146 138 130 126 134 153 177 202 213 211 201 200 204 207 196 184 191 187 192 213 222 226 231 235 247 252 269 61 234 277 292 176 177 212 231 234 239 241 224 219 210 197 179 180 199
159 153 146 148 150 152 147 142 142 144 148 144 142 145 146 147 146 149 152 153 155 158 157 156 153 148 146 141 135 134 132 131 130 124 125 145 152 157 161 156 168 184 174 163 184 189 175 199 213 213 210 212 214 213 210 202 201 201 207 219 223 226 236 242 247 254 261 232 248 276 290 235 197 216 232 231 238 235 225 225 214 217 201 198 216
156 151 143 146 147 149 145 143 147 149 150 147 144 144 146 147 148 151 149 148 152 152 152 153 153 149 146 142 140 140 138 131 126 129 133 143 151 158 168 167 176 194 203 197 201 207 199 204 208 211 214 217 218 213 212 214 215 214 214 218 224 231 241 247 247 251 256 242 256 277 287 263 227 218 228 233 241 234 223 230 230 228 223 212 217
154 149 143 143 145 150 148 148 151 149 148 146 145 143 146 147 144 148 148 145 148 148 146 147 147 144 145 146 148 146 137 131 128 132 135 144 151 155 166 169 175 180 195 214 220 221 222 221 216 217 221 223 222 218 216 215 220 223 221 222 227 236 244 252 255 256 261 251 257 274 281 270 254 230 226 230 238 235 221 221 229 228 231 221 203
154 150 148 147 150 153 151 152 151 149 147 144 145 144 144 145 142 143 147 148 147 145 143 142 141 140 143 146 151 144 136 136 131 125 120 126 119 141 172 173 185 190 199 225 242 241 239 237 231 230 228 228 227 225 225 221 220 226 229 233 235 241 247 253 259 262 266 260 256 268 277 274 264 246 225 224 233 232 221 222 229 225 234 226 198
155 152 149 150 153 152 152 153 150 148 147 145 144 144 145 144 143 143 146 150 145 144 143 140 138 140 144 147 151 145 140 136 108 97 78 50 4 339 219 221 225 230 238 243 259 263 257 251 245 243 238 234 234 230 231 229 225 227 228 235 238 242 250 256 259 262 264 263 256 258 267 270 264 255 228 216 232 230 222 229 236 228 234 229 200
153 151 149 149 151 152 153 152 150 148 145 144 141 141 145 143 144 145 146 149 146 148 147 145 146 147 149 152 157 150 145 144 102 121 169 205 292 281 244 231 238 238 245 251 260 269 274 271 263 257 251 247 243 235 236 237 234 233 231 235 240 240 246 256 262 267 266 264 258 249 259 265 258 257 239 214 224 230 226 231 236 232 233 229 209
150 149 149 148 150 152 153 152 151 147 144 142 140 140 142 142 146 146 143 145 145 146 145 142 143 146 152 154 156 153 141 139 128 112 206 252 245 251 239 220 231 232 241 247 254 264 270 274 274 270 264 258 255 247 243 244 242 241 238 237 239 239 244 254 263 269 272 269 263 249 254 261 256 253 246 226 221 224 228 232 232 230 233 229 216
150 152 150 148 150 151 151 153 150 145 144 140 138 141 142 143 145 140 136 136 135 132 130 133 138 143 151 148 150 149 137 130 122 105 112 109 140 144 221 210 215 218 236 243 252 263 262 265 268 272 270 264 261 255 250 250 250 249 247 244 241 241 243 250 262 271 273 269 267 260 251 253 254 251 245 236 225 219 223 228 229 229 231 228 219
153 154 152 150 151 151 152 153 148 145 143 140 141 142 141 142 138 135 133 129 125 123 129 138 141 136 130 128 135 141 135 121 112 110 114 110 110 108 97 265 268 239 247 254 262 266 261 264 264 266 269 265 263 259 254 250 250 251 251 252 251 247 246 250 258 267 273 270 266 263 256 248 248 248 247 244 232 220 219 220 227 232 228 226 222
155 155 155 153 151 153 154 150 146 145 142 141 141 138 137 135 130 130 128 125 124 125 135 134 125 122 115 114 117 126 125 118 109 105 102 94 100 97 10 304 297 279 269 263 266 261 256 261 265 268 268 266 268 265 262 257 254 251 247 250 250 248 248 253 255 256 262 268 266 258 255 250 242 240 240 246 241 227 219 214 221 231 229 227 222
157 157 155 154 154 155 152 146 144 144 142 140 138 136 134 130 129 131 126 124 123 121 126 122 116 119 119 112 109 115 115 114 111 106 112 108 130 172 246 274 292 297 288 280 276 271 266 264 262 266 266 265 266 267 269 266 262 258 253 251 248 248 253 256 256 253 253 259 262 254 246 246 242 238 233 235 240 236 229 216 215 223 227 229 221
157 155 155 156 153 150 146 143 142 142 141 139 137 137 133 128 127 127 125 123 120 120 122 122 120 118 118 116 112 116 116 118 122 128 134 129 157 346 329 287 298 303 298 296 292 289 288 284 276 271 270 266 262 262 265 265 264 264 262 257 252 253 258 259 255 252 250 249 254 254 245 241 237 235 231 228 230 235 238 227 217 216 221 228 222
155 154 157 154 147 147 146 144 144 144 142 138 138 135 129 127 126 122 123 123 120 119 118 119 120 115 114 115 112 115 120 122 123 125 116 78 350 336 334 321 319 317 313 305 301 302 300 296 291 284 279 275 270 264 261 260 262 263 263 261 259 257 256 256 253 249 248 245 248 252 248 244 237 232 228 226 227 232 239 237 226 218 215 220 221
152 156 158 154 152 154 151 150 151 148 145 141 138 133 127 127 126 120 121 124 122 119 123 126 121 117 111 110 114 112 115 116 105 97 67 335 323 314 314 326 326 320 316 311 310 309 305 300 295 290 284 281 281 277 273 269 266 264 260 258 260 260 256 254 253 249 246 244 245 248 248 246 241 234 228 227 228 228 232 236 233 224 218 216 219
155 158 156 156 158 156 153 155 155 151 149 144 138 134 131 130 126 125 128 129 128 123 126 129 121 116 105 100 108 102 92 88 73 27 340 316 314 317 313 313 310 313 314 311 313 310 305 301 296 294 289 283 283 283 284 284 280 274 267 261 260 260 258 255 252 249 246 244 243 243 245 244 240 234 230 228 226 222 224 231 228 222 221 220 220
164 163 157 160 161 158 157 157 153 151 151 145 143 146 142 137 135 133 133 127 123 117 111 108 99 92 86 81 82 78 68 51 19 344 342 324 320 322 315 308 309 315 313 310 314 312 305 301 298 297 294 291 288 283 286 291 291 285 276 267 261 257 256 254 250 248 245 244 243 242 242 242 239 233 229 227 224 222 222 227 226 222 224 226 227
171 164 161 166 163 159 155 151 151 152 153 149 151 154 145 141 140 134 126 118 116 111 101 91 82 77 76 75 70 64 62 51 21 360 349 336 332 322 315 316 318 316 314 313 315 312 307 302 300 298 295 297 298 293 293 294 292 290 283 275 268 259 252 250 249 247 245 243 242 243 241 238 236 232 230 227 224 223 222 223 226 228 227 226 228
178 168 165 165 159 154 151 149 152 155 156 153 150 145 138 138 136 129 121 112 107 104 94 83 78 75 70 67 61 53 48 41 24 10 357 344 340 331 326 327 325 322 320 319 316 314 312 308 307 306 301 298 299 299 297 294 291 294 298 292 284 270 250 242 246 246 245 242 239 241 240 237 235 233 232 230 226 224 222 221 222 224 227 226 224
176 169 163 158 154 152 151 153 153 152 150 148 143 135 131 131 128 124 119 105 92 90 89 81 78 74 67 62 54 43 38 33 22 13 360 347 343 338 336 334 332 329 324 320 318 318 319 319 321 319 314 308 304 301 293 292 296 298 299 293 295 294 263 237 241 243 238 239 239 240 241 239 239 236 234 233 228 225 222 218 218 219 222 224 223
165 160 155 151 152 153 151 151 150 147 142 135 129 123 121 117 111 111 112 109 103 100 98 91 82 74 66 58 49 40 32 25 16 12 5 354 348 343 341 339 337 334 328 325 322 322 324 326 328 322 317 315 313 310 300 292 291 293 294 291 297 298 285 281 281 256 233 233 239 239 241 243 243 240 237 236 231 228 225 222 222 222 222 223 222
158 155 154 151 152 155 153 148 143 142 137 129 123 121 121 115 110 110 110 113 115 112 103 94 87 74 59 48 39 29 20 13 8 9 5 359 356 349 348 346 341 339 336 330 325 324 324 322 323 317 313 314 313 312 305 296 287 280 282 291 294 286 293 329 326 295 242 239 246 242 241 244 246 243 240 238 235 232 230 229 228 225 223 223 222
152 149 149 147 146 148 146 139 134 134 130 126 127 129 129 125 121 121 121 120 112 92 73 72 76 67 51 35 22 16 12 11 11 11 7 5 7 2 359 356 350 348 341 334 331 328 326 324 324 316 309 309 309 307 303 300 293 280 275 278 278 279 296 314 317 311 294 273 263 254 246 244 244 243 242 242 238 234 233 230 229 227 223 223 223
142 141 137 136 135 132 129 126 122 121 120 121 125 124 120 113 104 102 107 113 107 92 81 79 77 60 43 27 17 13 14 19 19 16 17 16 14 12 8 4 358 355 350 346 342 335 333 332 331 325 315 310 306 302 302 304 298 287 281 278 278 279 284 290 290 299 303 284 269 263 256 249 244 241 242 245 241 236 236 233 230 229 226 225 225
135 136 130 127 127 122 117 115 110 108 106 102 101 99 98 95 92 90 90 91 96 102 107 106 92 52 37 28 18 13 17 27 29 26 27 24 20 15 9 6 3 360 357 354 349 342 338 336 332 331 325 315 307 301 301 303 296 292 293 286 283 283 281 280 280 283 289 288 279 264 248 240 240 241 240 242 242 238 239 238 235 233 229 227 225
128 125 120 117 115 114 111 108 104 102 99 94 92 90 90 91 94 97 96 95 99 110 128 129 93 54 40 33 25 27 29 35 37 33 34 30 26 22 16 12 6 3 357 350 347 343 340 336 332 330 327 319 311 304 301 301 298 298 299 292 286 285 282 279 275 270 268 275 283 278 260 243 241 247 243 240 244 244 243 244 242 239 234 230 226
113 111 112 109 108 110 107 103 101 96 95 101 104 97 88 83 83 91 102 114 124 141 138 84 49 25 33 36 38 45 44 40 34 31 32 27 23 21 18 13 7 2 357 350 346 344 341 338 333 329 328 323 317 311 304 301 302 301 300 296 292 289 286 282 278 273 268 266 274 283 284 275 268 265 249 243 250 250 246 247 245 242 239 235 230
105 103 109 109 108 107 102 98 96 93 96 104 101 89 78 74 74 75 76 77 82 80 75 59 29 22 34 38 40 45 43 38 29 22 21 17 13 13 6 0 357 352 349 346 340 338 335 330 328 326 324 323 320 319 313 307 307 303 300 296 293 293 291 287 288 288 284 277 277 281 282 282 282 278 263 249 251 250 247 247 246 244 241 238 233